Time,TemperatureF,DewpointF,PressureIn,WindDirection,WindDirectionDegrees,WindSpeedMPH,WindSpeedGustMPH,Humidity,HourlyPrecipIn,Conditions,Clouds,dailyrainin,SoftwareType,DateUTC
2013-05-23 00:02:00,50.0,-99.9,-100.00,NNE,16,14.0,-999.0,0,-99.99,,,-99.99,,2013-05-23 05:02:00,
2013-05-23 00:12:00,49.0,-99.9,-100.00,NNE,25,14.0,-999.0,0,-99.99,,,-99.99,,2013-05-23 05:12:00,
2013-05-23 00:22:00,49.0,-99.9,-100.00,NNE,15,13.0,-999.0,0,-99.99,,,-99.99,,2013-05-23 05:22:00,
2013-05-23 00:33:00,50.0,-99.9,-100.00,NNE,18,15.0,-999.0,0,-99.99,,,-99.99,,2013-05-23 05:33:00,
2013-05-23 00:43:00,49.0,-99.9,-100.00,NNE,15,14.0,-999.0,0,-99.99,,,-99.99,,2013-05-23 05:43:00,
2013-05-23 00:52:00,49.0,-99.9,-100.00,East,88,10.0,-999.0,0,-99.99,,,-99.99,,2013-05-23 05:52:00,
2013-05-23 01:02:00,49.0,-99.9,-100.00,West,261,10.0,-999.0,0,-99.99,,,-99.99,,2013-05-23 06:02:00,
2013-05-23 01:12:00,49.0,-99.9,-100.00,South,170,15.0,-999.0,0,-99.99,,,-99.99,,2013-05-23 06:12:00,
2013-05-23 01:22:00,48.0,-99.9,-100.00,North,5,12.0,-999.0,0,-99.99,,,-99.99,,2013-05-23 06:22:00,
2013-05-23 01:32:00,49.0,-99.9,-100.00,North,4,13.0,-999.0,0,-99.99,,,-99.99,,2013-05-23 06:32:00,
2013-05-23 01:42:00,48.0,-99.9,-100.00,West,259,14.0,-999.0,0,-99.99,,,-99.99,,2013-05-23 06:42:00,
2013-05-23 01:52:00,47.0,-99.9,-100.00,South,174,16.0,-999.0,0,-99.99,,,-99.99,,2013-05-23 06:52:00,
2013-05-23 02:02:00,48.0,-99.9,-100.00,North,4,18.0,-999.0,0,-99.99,,,-99.99,,2013-05-23 07:02:00,
2013-05-23 02:12:00,48.0,-99.9,-100.00,North,8,15.0,-999.0,0,-99.99,,,-99.99,,2013-05-23 07:12:00,
2013-05-23 02:22:00,48.0,-99.9,-100.00,North,10,15.0,-999.0,0,-99.99,,,-99.99,,2013-05-23 07:22:00,
2013-05-23 02:32:00,47.0,-99.9,-100.00,North,7,13.0,-999.0,0,-99.99,,,-99.99,,2013-05-23 07:32:00,
2013-05-23 02:42:00,48.0,-99.9,-100.00,North,9,16.0,-999.0,0,-99.99,,,-99.99,,2013-05-23 07:42:00,
2013-05-23 02:59:00,48.0,-99.9,-100.00,North,7,15.0,-999.0,0,-99.99,,,-99.99,,2013-05-23 07:59:00,
2013-05-23 03:12:00,47.0,-99.9,-100.00,North,-999,15.0,-999.0,0,-99.99,,,-99.99,,2013-05-23 08:12:00,
2013-05-23 03:22:00,47.0,-99.9,-100.00,East,87,17.0,-999.0,0,-99.99,,,-99.99,,2013-05-23 08:22:00,
2013-05-23 03:32:00,47.0,-99.9,-100.00,South,191,14.0,-999.0,0,-99.99,,,-99.99,,2013-05-23 08:32:00,
2013-05-23 03:42:00,47.0,-99.9,-100.00,West,261,14.0,-999.0,0,-99.99,,,-99.99,,2013-05-23 08:42:00,
2013-05-23 03:52:00,47.0,-99.9,-100.00,West,260,14.0,-999.0,0,-99.99,,,-99.99,,2013-05-23 08:52:00,
2013-05-23 04:02:00,47.0,-99.9,-100.00,North,4,16.0,-999.0,0,-99.99,,,-99.99,,2013-05-23 09:02:00,
2013-05-23 04:11:00,46.0,-99.9,-100.00,North,-999,16.0,-999.0,0,-99.99,,,-99.99,,2013-05-23 09:11:00,
2013-05-23 04:22:00,46.0,-99.9,-100.00,East,89,13.0,-999.0,0,-99.99,,,-99.99,,2013-05-23 09:22:00,
2013-05-23 04:33:00,46.0,-99.9,-100.00,West,259,14.0,-999.0,0,-99.99,,,-99.99,,2013-05-23 09:33:00,
2013-05-23 04:42:00,46.0,-99.9,-100.00,West,259,12.0,-999.0,0,-99.99,,,-99.99,,2013-05-23 09:42:00,
2013-05-23 04:53:00,46.0,-99.9,-100.00,West,259,12.0,-999.0,0,-99.99,,,-99.99,,2013-05-23 09:53:00,
2013-05-23 05:03:00,47.0,-99.9,-100.00,South,175,15.0,-999.0,0,-99.99,,,-99.99,,2013-05-23 10:03:00,
2013-05-23 05:13:00,47.0,-99.9,-100.00,West,259,12.0,-999.0,0,-99.99,,,-99.99,,2013-05-23 10:13:00,
2013-05-23 05:22:00,47.0,-99.9,-100.00,NNW,341,13.0,-999.0,0,-99.99,,,-99.99,,2013-05-23 10:22:00,
2013-05-23 05:33:00,47.0,-99.9,-100.00,ESE,119,16.0,-999.0,0,-99.99,,,-99.99,,2013-05-23 10:33:00,
2013-05-23 05:42:00,47.0,-99.9,-100.00,North,4,16.0,-999.0,0,-99.99,,,-99.99,,2013-05-23 10:42:00,
2013-05-23 05:52:00,47.0,-99.9,-100.00,North,7,17.0,-999.0,0,-99.99,,,-99.99,,2013-05-23 10:52:00,
2013-05-23 06:02:00,47.0,-99.9,-100.00,North,6,16.0,-999.0,0,-99.99,,,-99.99,,2013-05-23 11:02:00,
2013-05-23 06:12:00,47.0,-99.9,-100.00,North,8,18.0,-999.0,0,-99.99,,,-99.99,,2013-05-23 11:12:00,
2013-05-23 06:22:00,47.0,-99.9,-100.00,NNE,22,18.0,-999.0,0,-99.99,,,-99.99,,2013-05-23 11:22:00,
2013-05-23 06:32:00,46.0,-99.9,-100.00,North,8,14.0,-999.0,0,-99.99,,,-99.99,,2013-05-23 11:32:00,
2013-05-23 06:42:00,46.0,-99.9,-100.00,NNE,13,13.0,-999.0,0,-99.99,,,-99.99,,2013-05-23 11:42:00,
2013-05-23 06:52:00,46.0,-99.9,-100.00,NNE,18,16.0,-999.0,0,-99.99,,,-99.99,,2013-05-23 11:52:00,
2013-05-23 07:02:00,46.0,-99.9,-100.00,NNE,23,14.0,-999.0,0,-99.99,,,-99.99,,2013-05-23 12:02:00,
2013-05-23 07:12:00,46.0,-99.9,-100.00,NNE,15,13.0,-999.0,0,-99.99,,,-99.99,,2013-05-23 12:12:00,
2013-05-23 07:22:00,46.0,-99.9,-100.00,NNE,23,12.0,-999.0,0,-99.99,,,-99.99,,2013-05-23 12:22:00,
2013-05-23 07:33:00,47.0,-99.9,-100.00,NNE,16,14.0,-999.0,0,-99.99,,,-99.99,,2013-05-23 12:33:00,
2013-05-23 07:42:00,47.0,-99.9,-100.00,North,8,14.0,-999.0,0,-99.99,,,-99.99,,2013-05-23 12:42:00,
2013-05-23 07:52:00,47.0,-99.9,-100.00,North,8,14.0,-999.0,0,-99.99,,,-99.99,,2013-05-23 12:52:00,
2013-05-23 08:02:00,48.0,-99.9,-100.00,NNE,18,14.0,-999.0,0,-99.99,,,-99.99,,2013-05-23 13:02:00,
2013-05-23 08:11:00,48.0,-99.9,-100.00,NNE,22,14.0,-999.0,0,-99.99,,,-99.99,,2013-05-23 13:11:00,
2013-05-23 08:22:00,49.0,-99.9,-100.00,NNE,21,14.0,-999.0,0,-99.99,,,-99.99,,2013-05-23 13:22:00,
2013-05-23 08:32:00,49.0,-99.9,-100.00,NNE,22,15.0,-999.0,0,-99.99,,,-99.99,,2013-05-23 13:32:00,
2013-05-23 08:42:00,50.0,-99.9,-100.00,NNE,30,14.0,-999.0,0,-99.99,,,-99.99,,2013-05-23 13:42:00,
2013-05-23 08:52:00,50.0,-99.9,-100.00,NNE,30,14.0,-999.0,0,-99.99,,,-99.99,,2013-05-23 13:52:00,
2013-05-23 09:02:00,51.0,-99.9,-100.00,NE,46,10.0,-999.0,0,-99.99,,,-99.99,,2013-05-23 14:02:00,
2013-05-23 09:11:00,52.0,-99.9,-100.00,NE,38,9.0,-999.0,0,-99.99,,,-99.99,,2013-05-23 14:11:00,
2013-05-23 09:22:00,52.0,-99.9,-100.00,ENE,60,11.0,-999.0,0,-99.99,,,-99.99,,2013-05-23 14:22:00,
2013-05-23 09:32:00,53.0,-99.9,-100.00,NNE,27,15.0,-999.0,0,-99.99,,,-99.99,,2013-05-23 14:32:00,
2013-05-23 09:42:00,54.0,-99.9,-100.00,NE,36,13.0,-999.0,0,-99.99,,,-99.99,,2013-05-23 14:42:00,
2013-05-23 09:52:00,54.0,-99.9,-100.00,NE,48,13.0,-999.0,0,-99.99,,,-99.99,,2013-05-23 14:52:00,
2013-05-23 10:01:00,54.0,-99.9,-100.00,NE,47,16.0,-999.0,0,-99.99,,,-99.99,,2013-05-23 15:01:00,
2013-05-23 10:11:00,55.0,-99.9,-100.00,NE,47,17.0,-999.0,0,-99.99,,,-99.99,,2013-05-23 15:11:00,
2013-05-23 10:22:00,55.0,-99.9,-100.00,ENE,75,14.0,-999.0,0,-99.99,,,-99.99,,2013-05-23 15:22:00,
2013-05-23 10:33:00,55.0,-99.9,-100.00,ENE,72,11.0,-999.0,0,-99.99,,,-99.99,,2013-05-23 15:33:00,
2013-05-23 10:43:00,55.0,-99.9,-100.00,NE,51,14.0,-999.0,0,-99.99,,,-99.99,,2013-05-23 15:43:00,
2013-05-23 10:53:00,56.0,-99.9,-100.00,ENE,68,13.0,-999.0,0,-99.99,,,-99.99,,2013-05-23 15:53:00,
2013-05-23 11:03:00,57.0,-99.9,-100.00,ENE,68,11.0,-999.0,0,-99.99,,,-99.99,,2013-05-23 16:03:00,
2013-05-23 11:13:00,57.0,-99.9,-100.00,ENE,73,15.0,-999.0,0,-99.99,,,-99.99,,2013-05-23 16:13:00,
2013-05-23 11:23:00,58.0,-99.9,-100.00,East,94,6.0,-999.0,0,-99.99,,,-99.99,,2013-05-23 16:23:00,
2013-05-23 11:34:00,58.0,-99.9,-100.00,ENE,74,14.0,-999.0,0,-99.99,,,-99.99,,2013-05-23 16:34:00,
2013-05-23 11:43:00,58.0,-99.9,-100.00,ENE,63,13.0,-999.0,0,-99.99,,,-99.99,,2013-05-23 16:43:00,
2013-05-23 11:53:00,59.0,-99.9,-100.00,NE,40,13.0,-999.0,0,-99.99,,,-99.99,,2013-05-23 16:53:00,
2013-05-23 12:03:00,59.0,-99.9,-100.00,ENE,71,14.0,-999.0,0,-99.99,,,-99.99,,2013-05-23 17:03:00,
2013-05-23 12:12:00,59.0,-99.9,-100.00,NNE,31,13.0,-999.0,0,-99.99,,,-99.99,,2013-05-23 17:12:00,
2013-05-23 12:23:00,59.0,-99.9,-100.00,NE,46,11.0,-999.0,0,-99.99,,,-99.99,,2013-05-23 17:23:00,
2013-05-23 12:34:00,60.0,-99.9,-100.00,NE,49,12.0,-999.0,0,-99.99,,,-99.99,,2013-05-23 17:34:00,
2013-05-23 12:43:00,60.0,-99.9,-100.00,NE,49,13.0,-999.0,0,-99.99,,,-99.99,,2013-05-23 17:43:00,
2013-05-23 12:53:00,60.0,-99.9,-100.00,ENE,67,17.0,-999.0,0,-99.99,,,-99.99,,2013-05-23 17:53:00,
2013-05-23 13:02:00,60.0,-99.9,-100.00,ENE,73,12.0,-999.0,0,-99.99,,,-99.99,,2013-05-23 18:02:00,
2013-05-23 13:12:00,61.0,-99.9,-100.00,ENE,63,9.0,-999.0,0,-99.99,,,-99.99,,2013-05-23 18:12:00,
2013-05-23 13:22:00,61.0,-99.9,-100.00,NE,49,9.0,-999.0,0,-99.99,,,-99.99,,2013-05-23 18:22:00,
2013-05-23 13:33:00,61.0,-99.9,-100.00,NE,35,15.0,-999.0,0,-99.99,,,-99.99,,2013-05-23 18:33:00,
2013-05-23 13:42:00,61.0,-99.9,-100.00,ENE,78,13.0,-999.0,0,-99.99,,,-99.99,,2013-05-23 18:42:00,
2013-05-23 13:52:00,62.0,-99.9,-100.00,ENE,69,10.0,-999.0,0,-99.99,,,-99.99,,2013-05-23 18:52:00,
2013-05-23 14:02:00,62.0,-99.9,-100.00,NE,35,12.0,-999.0,0,-99.99,,,-99.99,,2013-05-23 19:02:00,
2013-05-23 14:11:00,62.0,-99.9,-100.00,NE,37,17.0,-999.0,0,-99.99,,,-99.99,,2013-05-23 19:11:00,
2013-05-23 14:22:00,63.0,-99.9,-100.00,NNE,28,19.0,-999.0,0,-99.99,,,-99.99,,2013-05-23 19:22:00,
2013-05-23 14:32:00,62.0,-99.9,-100.00,NE,39,18.0,-999.0,0,-99.99,,,-99.99,,2013-05-23 19:32:00,
2013-05-23 14:42:00,63.0,-99.9,-100.00,NE,47,12.0,-999.0,0,-99.99,,,-99.99,,2013-05-23 19:42:00,
2013-05-23 14:52:00,63.0,-99.9,-100.00,ENE,67,13.0,-999.0,0,-99.99,,,-99.99,,2013-05-23 19:52:00,
2013-05-23 15:02:00,63.0,-99.9,-100.00,NE,53,15.0,-999.0,0,-99.99,,,-99.99,,2013-05-23 20:02:00,
2013-05-23 15:12:00,63.0,-99.9,-100.00,NE,45,19.0,-999.0,0,-99.99,,,-99.99,,2013-05-23 20:12:00,
2013-05-23 15:22:00,63.0,-99.9,-100.00,ENE,65,11.0,-999.0,0,-99.99,,,-99.99,,2013-05-23 20:22:00,
2013-05-23 15:32:00,62.0,-99.9,-100.00,NE,44,13.0,-999.0,0,-99.99,,,-99.99,,2013-05-23 20:32:00,
2013-05-23 15:42:00,62.0,-99.9,-100.00,ENE,59,9.0,-999.0,0,-99.99,,,-99.99,,2013-05-23 20:42:00,
2013-05-23 15:52:00,63.0,-99.9,-100.00,NE,50,14.0,-999.0,0,-99.99,,,-99.99,,2013-05-23 20:52:00,
2013-05-23 16:01:00,63.0,-99.9,-100.00,ENE,62,17.0,-999.0,0,-99.99,,,-99.99,,2013-05-23 21:01:00,
2013-05-23 16:11:00,63.0,-99.9,-100.00,NE,46,10.0,-999.0,0,-99.99,,,-99.99,,2013-05-23 21:11:00,
2013-05-23 16:22:00,64.0,-99.9,-100.00,ENE,75,16.0,-999.0,0,-99.99,,,-99.99,,2013-05-23 21:22:00,
2013-05-23 16:33:00,64.0,-99.9,-100.00,NE,36,21.0,-999.0,0,-99.99,,,-99.99,,2013-05-23 21:33:00,
2013-05-23 16:43:00,64.0,-99.9,-100.00,ENE,61,15.0,-999.0,0,-99.99,,,-99.99,,2013-05-23 21:43:00,
2013-05-23 16:53:00,63.0,-99.9,-100.00,East,86,7.0,-999.0,0,-99.99,,,-99.99,,2013-05-23 21:53:00,
2013-05-23 17:03:00,65.0,-99.9,-100.00,ENE,76,12.0,-999.0,0,-99.99,,,-99.99,,2013-05-23 22:03:00,
2013-05-23 17:12:00,65.0,-99.9,-100.00,ENE,76,9.0,-999.0,0,-99.99,,,-99.99,,2013-05-23 22:12:00,
2013-05-23 17:23:00,65.0,-99.9,-100.00,ESE,120,20.0,-999.0,0,-99.99,,,-99.99,,2013-05-23 22:23:00,
2013-05-23 17:33:00,65.0,-99.9,-100.00,ESE,119,8.0,-999.0,0,-99.99,,,-99.99,,2013-05-23 22:33:00,
2013-05-23 17:43:00,65.0,-99.9,-100.00,ESE,102,15.0,-999.0,0,-99.99,,,-99.99,,2013-05-23 22:43:00,
2013-05-23 17:52:00,65.0,-99.9,-100.00,East,97,7.0,-999.0,0,-99.99,,,-99.99,,2013-05-23 22:52:00,
2013-05-23 18:02:00,64.0,-99.9,-100.00,ENE,71,11.0,-999.0,0,-99.99,,,-99.99,,2013-05-23 23:02:00,
2013-05-23 18:12:00,65.0,-99.9,-100.00,East,82,14.0,-999.0,0,-99.99,,,-99.99,,2013-05-23 23:12:00,
2013-05-23 18:22:00,65.0,-99.9,-100.00,ENE,64,9.0,-999.0,0,-99.99,,,-99.99,,2013-05-23 23:22:00,
2013-05-23 18:32:00,65.0,-99.9,-100.00,East,86,15.0,-999.0,0,-99.99,,,-99.99,,2013-05-23 23:32:00,
2013-05-23 18:42:00,65.0,-99.9,-100.00,East,97,8.0,-999.0,0,-99.99,,,-99.99,,2013-05-23 23:42:00,
2013-05-23 18:52:00,65.0,-99.9,-100.00,East,91,17.0,-999.0,0,-99.99,,,-99.99,,2013-05-23 23:52:00,
2013-05-23 19:01:00,65.0,-99.9,-100.00,East,89,4.0,-999.0,0,-99.99,,,-99.99,,2013-05-24 00:01:00,
2013-05-23 19:12:00,65.0,-99.9,-100.00,East,82,11.0,-999.0,0,-99.99,,,-99.99,,2013-05-24 00:12:00,
2013-05-23 19:22:00,65.0,-99.9,-100.00,SE,124,15.0,-999.0,0,-99.99,,,-99.99,,2013-05-24 00:22:00,
2013-05-23 19:32:00,65.0,-99.9,-100.00,East,97,12.0,-999.0,0,-99.99,,,-99.99,,2013-05-24 00:32:00,
2013-05-23 19:42:00,64.0,-99.9,-100.00,East,81,11.0,-999.0,0,-99.99,,,-99.99,,2013-05-24 00:42:00,
2013-05-23 19:52:00,64.0,-99.9,-100.00,ESE,104,13.0,-999.0,0,-99.99,,,-99.99,,2013-05-24 00:52:00,
2013-05-23 20:01:00,64.0,-99.9,-100.00,East,83,14.0,-999.0,0,-99.99,,,-99.99,,2013-05-24 01:01:00,
2013-05-23 20:12:00,64.0,-99.9,-100.00,East,90,16.0,-999.0,0,-99.99,,,-99.99,,2013-05-24 01:12:00,
2013-05-23 20:22:00,63.0,-99.9,-100.00,East,101,10.0,-999.0,0,-99.99,,,-99.99,,2013-05-24 01:22:00,
2013-05-23 20:32:00,62.0,-99.9,-100.00,ESE,111,13.0,-999.0,0,-99.99,,,-99.99,,2013-05-24 01:32:00,
2013-05-23 20:42:00,62.0,-99.9,-100.00,East,85,7.0,-999.0,0,-99.99,,,-99.99,,2013-05-24 01:42:00,
2013-05-23 20:52:00,61.0,-99.9,-100.00,ESE,105,8.0,-999.0,0,-99.99,,,-99.99,,2013-05-24 01:52:00,
2013-05-23 21:02:00,61.0,-99.9,-100.00,East,82,11.0,-999.0,0,-99.99,,,-99.99,,2013-05-24 02:02:00,
2013-05-23 21:12:00,60.0,-99.9,-100.00,East,95,10.0,-999.0,0,-99.99,,,-99.99,,2013-05-24 02:12:00,
2013-05-23 21:22:00,60.0,-99.9,-100.00,ESE,106,7.0,-999.0,0,-99.99,,,-99.99,,2013-05-24 02:22:00,
2013-05-23 21:32:00,59.0,-99.9,-100.00,East,93,10.0,-999.0,0,-99.99,,,-99.99,,2013-05-24 02:32:00,
2013-05-23 21:42:00,57.0,-99.9,-100.00,ESE,103,9.0,-999.0,0,-99.99,,,-99.99,,2013-05-24 02:42:00,
2013-05-23 21:52:00,56.0,-99.9,-100.00,East,100,9.0,-999.0,0,-99.99,,,-99.99,,2013-05-24 02:52:00,
2013-05-23 22:02:00,56.0,-99.9,-100.00,ESE,110,7.0,-999.0,0,-99.99,,,-99.99,,2013-05-24 03:02:00,
2013-05-23 22:11:00,55.0,-99.9,-100.00,ESE,113,9.0,-999.0,0,-99.99,,,-99.99,,2013-05-24 03:11:00,
2013-05-23 22:22:00,55.0,-99.9,-100.00,ESE,102,8.0,-999.0,0,-99.99,,,-99.99,,2013-05-24 03:22:00,
2013-05-23 22:33:00,54.0,-99.9,-100.00,ESE,113,5.0,-999.0,0,-99.99,,,-99.99,,2013-05-24 03:33:00,
2013-05-23 22:43:00,54.0,-99.9,-100.00,SE,137,7.0,-999.0,0,-99.99,,,-99.99,,2013-05-24 03:43:00,
2013-05-23 22:53:00,54.0,-99.9,-100.00,SE,135,5.0,-999.0,0,-99.99,,,-99.99,,2013-05-24 03:53:00,
2013-05-23 23:03:00,54.0,-99.9,-100.00,SE,130,5.0,-999.0,0,-99.99,,,-99.99,,2013-05-24 04:03:00,
2013-05-23 23:13:00,53.0,-99.9,-100.00,SE,134,7.0,-999.0,0,-99.99,,,-99.99,,2013-05-24 04:13:00,
2013-05-23 23:23:00,53.0,-99.9,-100.00,SE,132,7.0,-999.0,0,-99.99,,,-99.99,,2013-05-24 04:23:00,
2013-05-23 23:33:00,52.0,-99.9,-100.00,ESE,118,6.0,-999.0,0,-99.99,,,-99.99,,2013-05-24 04:33:00,
2013-05-23 23:42:00,52.0,-99.9,-100.00,SE,138,5.0,-999.0,0,-99.99,,,-99.99,,2013-05-24 04:42:00,
2013-05-23 23:53:00,52.0,-99.9,-100.00,SE,128,7.0,-999.0,0,-99.99,,,-99.99,,2013-05-24 04:53:00,